United States

Ashburn, VA Weather Archive

Below you will find the last 24 hours of weather readings for Ashburn VA

Ashburn VA Today's Weather Data

Observed at: Ashburn, VA

Hour Observerd Temp Pressure Visibility Humidity Dew Point Wind
19:00 Mostly Cloudy 82°F (27.8°C) 101.25 kPa 10 miles 66% 69.5°F (20.8°C) 5.8 mph WNW 292°
18:00 Partly Cloudy 84°F (28.9°C) 101.32 kPa 10 miles 61% 69.1°F (20.6°C) 2 mph E 98°5 mph
17:00 Mostly Cloudy 85°F (29.4°C) 101.22 kPa 10 miles 62% 70.5°F (21.4°C) 12.7 mph WNW 297°
16:00 Partly Cloudy 86°F (30°C) 101.25 kPa 10 miles 58% 69.5°F (20.8°C) 9.2 mph ESE 110°
15:00 Fair 85°F (29.4°C) 101.29 kPa 10 miles 59% 69°F (20.6°C) 6.9 mph WNW 291°
14:00 Fair 83°F (28.3°C) 101.35 kPa 10 miles 65% 70°F (21.1°C) 1 mph WNW 294°2 mph
13:00 Mostly Cloudy 81°F (27.2°C) 101.42 kPa 10 miles 67% 69°F (20.5°C) 1 mph WNW 293°3 mph
12:00 Partly Cloudy 82°F (27.8°C) 101.39 kPa 10 miles 74% 72.9°F (22.7°C) 8.1 mph WNW 294°
11:00 Mostly Cloudy 79°F (26.1°C) 101.46 kPa 10 miles 83% 73.4°F (23°C) 8.1 mph ESE 106°
10:00 Partly Cloudy 79°F (26.1°C) 101.46 kPa 10 miles 85% 74.1°F (23.4°C) 6.9 mph ESE 106°
09:00 Partly Cloudy 74°F (23.3°C) 101.42 kPa 10 miles 95% 72.5°F (22.5°C) 6.9 mph N 8°
08:00 Overcast 73°F (22.8°C) 101.46 kPa 10 miles 97% 72.1°F (22.3°C) 3.5 mph ESE 113°
07:00 Overcast 72°F (22.2°C) 101.42 kPa 10 miles 98% 71.4°F (21.9°C) 4.6 mph ESE 113°
06:00 Overcast 70°F (21.1°C) 101.42 kPa 2 miles 98% 69.4°F (20.8°C) 3.5 mph ESE 113°
05:00 Fair 70°F (21.1°C) 101.39 kPa 10 miles 98% 69.4°F (20.8°C) 1 mph ESE 113°
04:00 Partly Cloudy 70°F (21.1°C) 101.42 kPa 7 miles 98% 69.4°F (20.8°C) 2 mph ESE 113°
03:00 Mostly Cloudy 71°F (21.7°C) 101.39 kPa 10 miles 98% 70.4°F (21.3°C) 3.5 mph ESE 113°4 mph
02:00 Fair 71°F (21.7°C) 101.46 kPa 10 miles 98% 70.4°F (21.3°C) 3.5 mph ESE 113°
01:00 Partly Cloudy 72°F (22.2°C) 101.52 kPa 10 miles 97% 71.1°F (21.7°C) 3.5 mph ESE 113°
00:00 Mostly Cloudy 72°F (22.2°C) 101.59 kPa 10 miles 97% 71.1°F (21.7°C) 3.5 mph ESE 113°
23:00 Partly Cloudy 72°F (22.2°C) 101.59 kPa 10 miles 96% 70.8°F (21.6°C) 3.5 mph ESE 113°
22:00 Partly Cloudy 73°F (22.8°C) 101.59 kPa 10 miles 94% 71.2°F (21.8°C) 3.5 mph ESE 113°
21:00 Overcast 75°F (23.9°C) 101.63 kPa 5 miles 89% 71.5°F (22°C) 9.2 mph NW 304°
20:00 Overcast 79°F (26.1°C) 101.52 kPa 10 miles 77% 71.1°F (21.8°C) 5.8 mph ESE 117°